Back to catalog

ICEYE-X57

AliveScienceSSO
NORAD 64578·PAYLOAD·🇺🇸 United States

Launched Jun 23, 2025 from Vandenberg Space Force Base

Loading…

Next Passes (next 24 hours)

TLE

FreshSource: Space-Track

Epoch: Sep 14, 2026, 08:06 UTC

1 64578U 25135BC  26257.33786299  .00003514  00000-0  28131-3 0  9996
2 64578  97.8193  14.1868 0001904  52.9308 307.2089 15.00838174 67399

Track ICEYE-X57 in real time with AllMySat

Download on the App Store